Islamorada, Florida Weather Center

Moon Phase Calendar



Online Cameras

 


      

Current Conditions in Islamorada
5/24/2024 9:28:19 PM

83°F
Feels Like 90
Clouds
Humidity
76%
Pressure
29.91"
Wind
4.5 mph (SSE)
Dew Point
74°F
UV Index
0/10 (Low)
Visibility
6 mi

Hourly Forecast

Date & Time Fri, May 24
9:00 PM
Fri, May 24
10:00 PM
Fri, May 24
11:00 PM
Sat, May 25
12:00 AM
Sat, May 25
1:00 AM
Sat, May 25
2:00 AM
Sat, May 25
3:00 AM
Sat, May 25
4:00 AM
Sat, May 25
5:00 AM
Sat, May 25
6:00 AM
Sat, May 25
7:00 AM
Sat, May 25
8:00 AM
Sat, May 25
9:00 AM
Sat, May 25
10:00 AM
Sat, May 25
11:00 AM
Sat, May 25
12:00 PM
Sat, May 25
1:00 PM
Sat, May 25
2:00 PM
Sat, May 25
3:00 PM
Sat, May 25
4:00 PM
Sat, May 25
5:00 PM
Sat, May 25
6:00 PM
Sat, May 25
7:00 PM
Sat, May 25
8:00 PM
Sat, May 25
9:00 PM
Sat, May 25
10:00 PM
Sat, May 25
11:00 PM
Sun, May 26
12:00 AM
Sun, May 26
1:00 AM
Sun, May 26
2:00 AM
Sun, May 26
3:00 AM
Sun, May 26
4:00 AM
Sun, May 26
5:00 AM
Sun, May 26
6:00 AM
Sun, May 26
7:00 AM
Sun, May 26
8:00 AM
Sun, May 26
9:00 AM
Sun, May 26
10:00 AM
Sun, May 26
11:00 AM
Sun, May 26
12:00 PM
Sun, May 26
1:00 PM
Sun, May 26
2:00 PM
Sun, May 26
3:00 PM
Sun, May 26
4:00 PM
Sun, May 26
5:00 PM
Sun, May 26
6:00 PM
Sun, May 26
7:00 PM
Sun, May 26
8:00 PM
Condition
Clouds

Clear

Clear

Clear

Clear

Clear

Clear

Clear

Clear

Clear

Clear

Clear

Clear

Clear

Clear

Clear

Clear

Clear

Clear

Clear

Clear

Clear

Clear

Clear

Clear

Clear

Clouds

Clouds

Clouds

Clear

Clear

Clear

Clear

Clear

Clear

Clear

Clear

Clear

Clear

Clear

Clear

Clear

Clear

Clear

Clear

Clear

Clear

Clouds
Temperature 83°F83°F83°F83°F83°F82°F82°F82°F82°F82°F82°F82°F81°F81°F81°F81°F81°F82°F82°F82°F83°F82°F83°F83°F83°F83°F83°F83°F83°F83°F83°F83°F83°F82°F82°F82°F82°F82°F82°F82°F82°F82°F83°F83°F83°F83°F83°F83°F
Feels Like 90°F88°F88°F86°F86°F84°F85°F85°F85°F85°F84°F84°F84°F84°F84°F84°F84°F85°F85°F85°F86°F86°F86°F87°F86°F86°F86°F87°F87°F86°F86°F87°F87°F86°F86°F86°F85°F85°F85°F85°F85°F86°F86°F87°F88°F88°F88°F88°F
Cloudiness 11%10%9%8%6%4%0%0%0%0%0%0%0%0%0%0%0%0%0%2%3%5%5%4%2%1%11%16%11%10%0%0%0%0%0%0%0%0%0%0%0%0%5%6%3%7%6%11%
Visibility 6 mi6 mi6 mi6 mi6 mi6 mi6 mi6 mi6 mi6 mi6 mi6 mi6 mi6 mi6 mi6 mi6 mi6 mi6 mi6 mi6 mi6 mi6 mi6 mi6 mi6 mi6 mi6 mi6 mi6 mi6 mi6 mi6 mi6 mi6 mi6 mi6 mi6 mi6 mi6 mi6 mi6 mi6 mi6 mi6 mi6 mi6 mi6 mi
Precipitation 0%0%0%0%0%0%0%0%0%0%0%0%0%0%0%0%0%0%0%0%0%0%0%0%0%0%0%0%0%0%0%0%0%0%0%0%0%0%0%0%0%0%0%0%0%0%0%0%
Humidity 76%72%69%65%62%59%59%59%60%60%60%61%63%63%63%63%63%63%64%64%64%63%63%63%60%60%61%62%63%63%64%65%66%68%68%68%67%65%65%64%63%63%64%66%67%67%67%67%
Dew Point 74°F73°F72°F70°F68°F67°F67°F67°F67°F67°F67°F67°F67°F68°F68°F68°F68°F68°F69°F69°F69°F68°F69°F69°F68°F68°F69°F69°F69°F69°F69°F70°F70°F71°F71°F70°F70°F69°F69°F68°F68°F69°F70°F70°F71°F71°F71°F71°F
Pressure 29.91"29.91"29.91"29.94"29.91"29.91"29.91"29.88"29.91"29.91"29.94"29.94"29.97"29.97"29.97"29.97"29.97"29.94"29.94"29.91"29.91"29.91"29.91"29.88"29.94"29.97"29.97"29.97"29.94"29.94"29.91"29.91"29.91"29.91"29.94"29.97"29.97"30"30"30"29.97"29.97"29.97"29.94"29.94"29.94"29.94"29.94"
Wind Speed 4.5 mph2.3 mph2.7 mph2.8 mph3 mph3.6 mph3.9 mph5 mph5.6 mph5.2 mph4.2 mph4.3 mph5.3 mph5.5 mph5.3 mph4.5 mph4.8 mph6.6 mph8.1 mph8.5 mph7.7 mph6.3 mph7 mph9.5 mph2.8 mph3.8 mph3.3 mph4.4 mph4.4 mph2.7 mph2.8 mph6.1 mph7.8 mph8.7 mph8.6 mph7.9 mph6.8 mph6.2 mph6.2 mph5.7 mph6.2 mph6.4 mph7.5 mph7.1 mph8.6 mph9.6 mph8.6 mph8.6 mph
Wind
Direction
159°
SSE
109°
ESE
108°
ESE
140°
SE
145°
SE
116°
ESE
96°
E
101°
E
100°
E
110°
ESE
130°
SE
155°
SSE
171°
S
179°
S
189°
S
204°
SSW
193°
SSW
199°
SSW
205°
SSW
209°
SSW
210°
SSW
194°
SSW
191°
S
196°
SSW
203°
SSW
354°
N
353°
N

N
34°
NE
65°
ENE
126°
SE
145°
SE
145°
SE
149°
SSE
148°
SSE
150°
SSE
150°
SSE
146°
SE
161°
SSE
156°
SSE
149°
SSE
141°
SE
146°
SE
147°
SSE
160°
SSE
156°
SSE
151°
SSE
140°
SE

Daily Forecast

Date High Low Precip. Humidity
Today
May 24

Clear
83 °F
81 °F
0%
60%
Saturday
May 25

Clear
83 °F
81 °F
0%
63%
Sunday
May 26

Clear
84 °F
82 °F
0%
63%
Monday
May 27

Clear
84 °F
83 °F
0%
70%
Tuesday
May 28

Clear
84 °F
82 °F
0%
72%
Wednesday
May 29

Clear
84 °F
82 °F
0%
77%
Thursday
May 30

Rain
83 °F
82 °F
96%
75%
Friday
May 31

Rain
84 °F
82 °F
100%
73%
Saturday
Jun 1

Rain
83 °F
82 °F
88%
74%
Sunday
Jun 2

Rain
83 °F
82 °F
100%
74%
Monday
Jun 3

Rain
85 °F
81 °F
100%
73%
Tuesday
Jun 4

Rain
83 °F
81 °F
100%
78%
Wednesday
Jun 5

Clear
84 °F
82 °F
0%
74%
Thursday
Jun 6

Rain
85 °F
83 °F
70%
72%
Friday
Jun 7

Rain
86 °F
85 °F
100%
70%
Saturday
Jun 8

Rain
86 °F
84 °F
100%
76%

Temperature 8-14 Day Outlook



Precipitation 8-14 Day Outlook




Quick Links
Islamorada, Florida News
Islamorada, Florida Photos
Islamorada, Florida Videos




About Us
Contact Us
Site Map
Search Site
Advertise With Us
   
Islamorada.CoastalTown.com
THE ISLAMORADA, FLORIDA WEBSITE

Copyright 2024, Coastal Town
Privacy    |    Legal